Home > Weather > Valletta > Past weeks

Flag for Malta Weather for the Past 2 Weeks in Valletta, Malta

Now
59 °F

Passing clouds.


Feels Like: 55 °F
Forecast: 56 / 65 °F
Wind: 21 mph from Northwest

Location: Luqa

Current Time: Feb 10, 2016 at 7:52:21 PM

Latest Report: Feb 10, 2016 at 7:15 PM


Visibility: N/A

Pressure: 29.98 "Hg

Humidity: 88%

Dew point: 55 °F

Location of VallettaLocation

Historic Weather in Valletta — Graph

°F

Valletta Temperature Yesterday

Maximum temperature yesterday: 63 °F (at 11:15 AM)
Minimum temperature yesterday: 50 °F (at 12:15 AM)
Average temperature yesterday: 56 °F

High & Low Weather Summary for the Past Weeks

 TemperatureHumidityPressure
High68 °F (Feb 10, 1:15 PM)100% (Jan 27, 11:15 PM)30.51 "Hg (Jan 27, 11:15 PM)
Low46 °F (Jan 30, 6:15 AM)45% (Feb 6, 9:45 AM)29.92 "Hg (Feb 10, 12:45 PM)
Average56 °F79%30.31 "Hg
* Reported Jan 26 6:15 PM — Feb 10 6:45 PM, Valletta, Weather by CustomWeather, © 2016

Note: Actual official high and low records may vary slightly from our data, if they occured in-between our weather recording intervals... More about our weather records

Advertising

Valletta Weather History for the Previous 24 Hours

 ConditionsComfort  
Time TempWeatherWind HumidityBarometerVisibility
6:45 PM
Wed, Feb 10
61 °FPassing clouds.17 mph77%29.95 "HgN/A
6:15 PM61 °FPassing clouds.18 mph77%29.95 "HgN/A
5:45 PM61 °FPassing clouds.14 mph77%29.95 "HgN/A
5:15 PM61 °FPassing clouds.17 mph72%29.95 "HgN/A
4:45 PM63 °FScattered clouds.15 mph68%29.92 "HgN/A
4:15 PM63 °FScattered clouds.18 mph68%29.92 "HgN/A
3:45 PM63 °FScattered clouds.15 mph68%29.92 "HgN/A
3:15 PM64 °FScattered clouds.16 mph64%29.92 "HgN/A
2:45 PM66 °FPassing clouds.18 mph56%29.92 "HgN/A
2:15 PM64 °FScattered clouds.16 mph60%29.92 "HgN/A
1:45 PM64 °FScattered clouds.18 mph56%29.92 "HgN/A
1:15 PM68 °FPartly sunny.20 mph49%29.92 "HgN/A
12:45 PM66 °FPassing clouds.20 mph60%29.92 "HgN/A
12:15 PM66 °FPassing clouds.18 mph60%29.95 "HgN/A
11:45 AM64 °FSunny.16 mph64%29.95 "Hg10 mi
11:15 AM64 °FPassing clouds.15 mph68%29.95 "HgN/A
10:45 AM64 °FPassing clouds.16 mph64%29.95 "HgN/A
10:15 AM63 °FPassing clouds.14 mph68%29.95 "HgN/A
9:45 AM63 °FSunny.16 mph68%29.95 "Hg10 mi
9:15 AM63 °FPassing clouds.14 mph68%29.95 "HgN/A
8:45 AM61 °FSunny.13 mph72%29.95 "Hg10 mi
8:15 AM61 °FSunny.14 mph68%29.95 "Hg10 mi
7:45 AM59 °FPassing clouds.15 mph77%29.95 "HgN/A
7:15 AM59 °FPassing clouds.16 mph72%29.95 "HgN/A
6:45 AM59 °FPassing clouds.16 mph72%29.95 "HgN/A
6:15 AM59 °FPassing clouds.16 mph72%29.95 "HgN/A
5:45 AM61 °FClear.21 mph63%29.95 "Hg10 mi
5:15 AM61 °FClear.22 mph63%29.95 "Hg10 mi
4:45 AM61 °FClear.24 mph63%29.95 "Hg10 mi
4:15 AM61 °FClear.24 mph59%29.95 "Hg10 mi
3:45 AM61 °FClear.24 mph59%29.95 "Hg10 mi
3:15 AM61 °FClear.22 mph63%29.95 "Hg10 mi
2:45 AM59 °FPassing clouds.17 mph68%30.01 "HgN/A
2:15 AM59 °FClear.18 mph72%30.01 "Hg10 mi
1:45 AM59 °FClear.15 mph72%30.04 "Hg10 mi
1:15 AM59 °FPassing clouds.12 mph72%30.07 "HgN/A
12:45 AM59 °FPassing clouds.13 mph72%30.07 "HgN/A
12:15 AM59 °FClear.13 mph72%30.09 "Hg10 mi
11:45 PM
Tue, Feb 9
59 °FPassing clouds.10 mph72%30.09 "HgN/A
10:45 PM59 °FClear.14 mph68%30.12 "Hg10 mi
10:15 PM59 °FClear.13 mph68%30.12 "Hg10 mi
9:45 PM57 °FPassing clouds.13 mph72%30.15 "HgN/A
9:15 PM57 °FClear.14 mph77%30.15 "Hg10 mi
8:45 PM57 °FPassing clouds.14 mph77%30.15 "HgN/A
8:15 PM57 °FPassing clouds.12 mph77%30.15 "HgN/A
7:45 PM57 °FPassing clouds.12 mph77%30.18 "HgN/A
7:15 PM57 °FPassing clouds.10 mph77%30.18 "HgN/A
Weather by CustomWeather, © 2016

See weather overviewHow to use our weather pages